• In Uzbekistan
  • List of Countries
  • For 7 days
  • Water Temperature
  • Satellite Maps
  • Weather Map
  • Weather Widgets
  • user-avatar
    Login

    Hourly Weather Haiger

    Today, 19 February, Monday

    Time Temperature Precipitation Wind Pressure Humidity
    00:00 -2°C° 0 mm 1 mps 733 mmHg 89%
    01:00 -3°C° 0 mm 1 mps 732 mmHg 90%
    02:00 -3°C° 0 mm 1 mps 732 mmHg 90%
    03:00 -3°C° 0 mm 1 mps 732 mmHg 90%
    04:00 -3°C° 0 mm 1 mps 731 mmHg 90%
    05:00 -2°C° 0 mm 1 mps 731 mmHg 89%
    06:00 -2°C° 0 mm 1 mps 731 mmHg 89%
    07:00 -2°C° 0 mm 1 mps 731 mmHg 88%
    08:00 -1°C° 0 mm 1 mps 731 mmHg 84%
    09:00 0°C° 0 mm 1 mps 731 mmHg 79%
    10:00 +1°C° 0 mm 1 mps 731 mmHg 75%
    11:00 +2°C° 0 mm 1 mps 730 mmHg 70%
    12:00 +3°C° 0 mm 1 mps 730 mmHg 66%
    13:00 +3°C° 0 mm 1 mps 730 mmHg 62%
    14:00 +3°C° 0 mm 1 mps 729 mmHg 62%
    15:00 +3°C° 0 mm 1 mps 729 mmHg 62%
    16:00 +4°C° 0 mm 1 mps 729 mmHg 62%
    17:00 +2°C° 0 mm 1 mps 728 mmHg 67%
    18:00 0°C° 0 mm 0 mps 728 mmHg 72%
    19:00 -1°C° 0 mm 0 mps 728 mmHg 77%
    20:00 -1°C° 0 mm 0 mps 728 mmHg 78%
    21:00 -2°C° 0 mm 0 mps 728 mmHg 79%
    22:00 -2°C° 0 mm 0 mps 728 mmHg 80%
    23:00 -2°C° 0 mm 0 mps 728 mmHg 81%

    Tomorrow, 20 February, Tuesday

    Time Temperature Precipitation Wind Pressure Humidity
    00:00 -2°C° 0 mm 1 mps 728 mmHg 82%
    01:00 -2°C° 0 mm 1 mps 728 mmHg 83%
    02:00 -2°C° 0 mm 1 mps 727 mmHg 83%
    03:00 -2°C° 0 mm 1 mps 727 mmHg 84%
    04:00 -2°C° 0 mm 1 mps 727 mmHg 84%
    05:00 -2°C° 0 mm 1 mps 727 mmHg 84%
    06:00 -2°C° 0 mm 1 mps 727 mmHg 85%
    07:00 -2°C° 0 mm 1 mps 727 mmHg 85%
    08:00 -1°C° 0 mm 1 mps 727 mmHg 80%
    09:00 0°C° 0 mm 1 mps 728 mmHg 74%
    10:00 +1°C° 0 mm 1 mps 728 mmHg 69%
    11:00 +1°C° 0 mm 2 mps 728 mmHg 64%
    12:00 +2°C° 0 mm 2 mps 728 mmHg 59%
    13:00 +3°C° 0 mm 2 mps 728 mmHg 55%
    14:00 +3°C° 0 mm 2 mps 728 mmHg 56%
    15:00 +3°C° 0 mm 2 mps 728 mmHg 58%
    16:00 +2°C° 0 mm 3 mps 728 mmHg 59%
    17:00 0°C° 0 mm 3 mps 728 mmHg 66%
    18:00 -1°C° 0 mm 2 mps 729 mmHg 74%
    19:00 -3°C° 0 mm 2 mps 729 mmHg 81%
    20:00 -3°C° 0 mm 2 mps 729 mmHg 82%
    21:00 -3°C° 0 mm 2 mps 730 mmHg 83%
    22:00 -4°C° 0 mm 2 mps 730 mmHg 84%
    23:00 -4°C° 0 mm 2 mps 730 mmHg 85%

    Day after tomorrow, 21 February, Wednesday

    Time Temperature Precipitation Wind Pressure Humidity
    00:00 -4°C° 0 mm 2 mps 731 mmHg 86%
    01:00 -4°C° 0 mm 2 mps 731 mmHg 86%
    02:00 -4°C° 0 mm 2 mps 731 mmHg 87%
    03:00 -4°C° 0 mm 2 mps 731 mmHg 87%
    04:00 -4°C° 0 mm 2 mps 731 mmHg 88%
    05:00 -4°C° 0 mm 2 mps 731 mmHg 87%
    06:00 -4°C° 0 mm 2 mps 732 mmHg 86%
    07:00 -5°C° 0 mm 2 mps 732 mmHg 85%
    08:00 -4°C° 0 mm 2 mps 732 mmHg 78%
    09:00 -2°C° 0 mm 3 mps 732 mmHg 71%
    10:00 -1°C° 0 mm 3 mps 733 mmHg 64%
    11:00 0°C° 0 mm 3 mps 732 mmHg 60%
    12:00 +1°C° 0 mm 3 mps 732 mmHg 55%
    13:00 +2°C° 0 mm 3 mps 732 mmHg 50%
    14:00 +2°C° 0 mm 3 mps 732 mmHg 52%
    15:00 +2°C° 0 mm 3 mps 731 mmHg 53%
    16:00 +2°C° 0 mm 3 mps 731 mmHg 54%
    17:00 0°C° 0 mm 3 mps 731 mmHg 61%
    18:00 -1°C° 0 mm 3 mps 731 mmHg 68%
    19:00 -4°C° 0 mm 3 mps 731 mmHg 74%
    20:00 -4°C° 0 mm 3 mps 731 mmHg 75%
    21:00 -4°C° 0 mm 3 mps 731 mmHg 76%
    22:00 -5°C° 0 mm 3 mps 731 mmHg 76%
    23:00 -5°C° 0 mm 3 mps 731 mmHg 77%

    22 February, Thursday

    Time Temperature Precipitation Wind Pressure Humidity
    00:00 -5°C° 0 mm 3 mps 731 mmHg 79%
    01:00 -5°C° 0 mm 3 mps 731 mmHg 80%
    02:00 -5°C° 0 mm 3 mps 731 mmHg 81%
    03:00 -5°C° 0 mm 3 mps 730 mmHg 81%
    04:00 -5°C° 0 mm 4 mps 730 mmHg 82%
    05:00 -5°C° 0 mm 4 mps 730 mmHg 81%
    06:00 -5°C° 0 mm 4 mps 730 mmHg 80%
    07:00 -7°C° 0 mm 4 mps 730 mmHg 79%
    08:00 -6°C° 0 mm 5 mps 731 mmHg 71%
    09:00 -5°C° 0 mm 5 mps 731 mmHg 63%
    10:00 -4°C° 0 mm 6 mps 731 mmHg 55%
    11:00 -4°C° 0 mm 6 mps 731 mmHg 52%
    12:00 -3°C° 0 mm 6 mps 731 mmHg 48%
    13:00 -2°C° 0 mm 6 mps 730 mmHg 45%
    14:00 -2°C° 0 mm 6 mps 730 mmHg 46%
    15:00 -2°C° 0 mm 6 mps 730 mmHg 48%
    16:00 -2°C° 0 mm 6 mps 730 mmHg 49%
    17:00 -3°C° 0 mm 6 mps 730 mmHg 54%
    18:00 -4°C° 0 mm 5 mps 730 mmHg 59%
    19:00 -5°C° 0 mm 5 mps 730 mmHg 64%
    20:00 -6°C° 0 mm 5 mps 730 mmHg 65%
    21:00 -6°C° 0 mm 5 mps 730 mmHg 66%
    22:00 -6°C° 0 mm 5 mps 730 mmHg 67%
    23:00 -6°C° 0 mm 5 mps 730 mmHg 66%

    23 February, Friday

    Time Temperature Precipitation Wind Pressure Humidity
    00:00 -7°C° 0 mm 5 mps 730 mmHg 66%
    01:00 -7°C° 0 mm 5 mps 730 mmHg 65%
    02:00 -7°C° 0 mm 5 mps 730 mmHg 64%
    03:00 -7°C° 0 mm 5 mps 730 mmHg 64%
    04:00 -8°C° 0 mm 5 mps 729 mmHg 63%
    05:00 -8°C° 0 mm 5 mps 729 mmHg 62%
    06:00 -8°C° 0 mm 5 mps 730 mmHg 60%
    07:00 -8°C° 0 mm 5 mps 730 mmHg 59%
    08:00 -7°C° 0 mm 5 mps 730 mmHg 56%
    09:00 -8°C° 0 mm 6 mps 730 mmHg 52%
    10:00 -6°C° 0 mm 6 mps 731 mmHg 49%
    11:00 -5°C° 0 mm 6 mps 731 mmHg 46%
    12:00 -4°C° 0 mm 6 mps 731 mmHg 42%
    13:00 -3°C° 0 mm 6 mps 731 mmHg 38%
    14:00 -3°C° 0 mm 6 mps 731 mmHg 39%
    15:00 -3°C° 0 mm 6 mps 731 mmHg 40%
    16:00 -3°C° 0 mm 6 mps 731 mmHg 40%
    17:00 -4°C° 0 mm 6 mps 731 mmHg 45%
    18:00 -5°C° 0 mm 6 mps 731 mmHg 49%
    19:00 -6°C° 0 mm 5 mps 732 mmHg 54%
    20:00 -7°C° 0 mm 5 mps 732 mmHg 53%
    21:00 -7°C° 0 mm 5 mps 732 mmHg 52%
    22:00 -7°C° 0 mm 5 mps 733 mmHg 51%
    23:00 -8°C° 0 mm 5 mps 733 mmHg 49%

    24 February, Saturday

    Time Temperature Precipitation Wind Pressure Humidity
    00:00 -8°C° 0 mm 5 mps 733 mmHg 48%
    01:00 -8°C° 0 mm 5 mps 733 mmHg 46%
    02:00 -8°C° 0 mm 5 mps 734 mmHg 45%
    03:00 -8°C° 0 mm 5 mps 734 mmHg 43%
    04:00 -10°C° 0 mm 5 mps 734 mmHg 41%
    05:00 -10°C° 0 mm 5 mps 734 mmHg 42%
    06:00 -10°C° 0 mm 5 mps 734 mmHg 44%
    07:00 -10°C° 0 mm 5 mps 735 mmHg 45%
    08:00 -8°C° 0 mm 5 mps 735 mmHg 44%
    09:00 -7°C° 0 mm 5 mps 736 mmHg 43%
    10:00 -6°C° 0 mm 6 mps 736 mmHg 42%
    11:00 -5°C° 0 mm 6 mps 736 mmHg 40%
    12:00 -5°C° 0 mm 6 mps 736 mmHg 37%
    13:00 -4°C° 0 mm 6 mps 736 mmHg 35%
    14:00 -4°C° 0 mm 6 mps 736 mmHg 36%
    15:00 -4°C° 0 mm 5 mps 736 mmHg 37%
    16:00 -4°C° 0 mm 5 mps 736 mmHg 38%
    17:00 -5°C° 0 mm 5 mps 736 mmHg 42%
    18:00 -5°C° 0 mm 4 mps 736 mmHg 46%
    19:00 -7°C° 0 mm 4 mps 736 mmHg 50%
    20:00 -7°C° 0 mm 4 mps 736 mmHg 53%
    21:00 -7°C° 0 mm 4 mps 736 mmHg 56%
    22:00 -8°C° 0 mm 4 mps 736 mmHg 59%
    23:00 -7°C° 0 mm 3 mps 736 mmHg 62%
    Show more